[[{"header":{"parameterUnit":"m.s-1","parameterCategory":1,"la1":30.2991,"la2":30.254,"lo1":-89.0895,"lo2":-89.0444,"dy":0.0017,"dx":0.0017,"nx":28,"ny":28,"refTime":"2024-02-01T09:00:00:Z","depth":0,"parameterNumber":2,"parameterNumberName":"U-component_of_WINDS"},"data":[0,0,0,0,0,0,0,0,0,0,0,0,0,0,0,0,0,0,0,0,0,0,0,0,0,0,0,0,0,0,0,0,0,0,0,0,0,0,0,0,0,0,0,0,0,0,0,0,0,0,0,0,0,0,0,0,0,0,-0.6399,-0.6399,0,-0.6367,-0.6366,-0.6366,-0.6326,-0.6326,-0.6325,-0.6325,-0.6292,-0.6292,-0.6291,0,0,0,0,0,0,0,0,0,0,0,0,0,-0.6427,-0.6427,-0.6399,-0.6398,-0.6398,-0.6367,-0.6366,-0.6366,-0.6327,-0.6326,-0.6325,-0.6324,-0.6292,-0.6292,-0.6291,0,0,0,0,0,0,0,0,0,0,0,0,0,-0.6407,-0.6426,-0.6399,-0.6375,-0.6372,-0.6367,-0.6366,-0.6366,-0.6327,-0.6326,-0.6325,-0.6324,-0.6292,-0.6292,-0.6291,-0.6307,0,0,-0.629,-0.629,0,0,0,0,0,0,0,0,-0.6408,-0.6406,-0.6379,-0.6376,-0.6374,-0.635,-0.6364,-0.6346,-0.6327,-0.6344,-0.6325,-0.6323,-0.6312,-0.631,-0.6306,-0.6306,-0.6304,-0.629,-0.629,-0.629,-0.6289,0,0,0,0,0,0,0,-0.6409,-0.6407,-0.6386,-0.6378,-0.6375,-0.6366,-0.6362,-0.6361,-0.6334,-0.6342,-0.6339,-0.6336,-0.631,-0.6306,-0.6305,-0.6304,-0.629,-0.629,-0.6289,-0.6289,-0.6316,-0.6317,0,0,0,0,0,0,-0.6414,-0.6408,-0.6387,-0.6385,-0.6389,-0.6366,-0.6361,-0.6358,-0.6333,-0.6329,-0.6337,-0.6334,-0.6308,-0.6305,-0.6303,-0.6321,-0.629,-0.6289,-0.6289,-0.6315,-0.6316,-0.6317,0,0,0,0,0,0,-0.6415,-0.6413,-0.6388,-0.6396,-0.6392,-0.6366,-0.6363,-0.6358,-0.6354,-0.6329,-0.6324,-0.6338,-0.6307,-0.6304,-0.6307,-0.6319,-0.6289,-0.6289,-0.6314,-0.6315,-0.6317,-0.6355,0,0,0,0,0,0,-0.6416,-0.6413,-0.6419,-0.6396,-0.6392,-0.6392,-0.6364,-0.6358,-0.6353,-0.635,-0.6329,-0.6325,-0.6306,-0.6308,-0.6306,-0.6318,-0.6288,-0.6313,-0.6314,-0.6316,-0.6353,-0.6358,-0.6362,0,0,0,0,0,-0.6417,-0.6431,-0.6419,-0.6417,-0.6398,-0.6393,-0.639,-0.6368,-0.6355,-0.636,-0.6344,-0.6325,-0.6318,-0.6308,-0.6306,-0.6318,-0.6312,-0.6314,-0.6316,-0.6351,-0.6357,-0.6362,0,0,0,0,0,0,-0.6456,-0.6428,-0.6414,-0.6422,-0.641,-0.6386,-0.6393,-0.6376,-0.6368,-0.6365,-0.6338,-0.6334,-0.634,-0.6329,-0.6319,-0.6332,-0.6312,-0.6314,-0.6339,-0.6345,-0.6349,-0.6352,-0.6288,0,0,0,0,0,-0.6465,-0.6463,-0.6439,-0.6447,-0.6442,-0.6419,-0.6415,-0.64,-0.6387,-0.6381,-0.6366,-0.6354,-0.6349,-0.6346,-0.634,-0.6351,-0.6346,-0.6358,-0.6363,-0.6367,-0.6369,-0.6374,-0.6379,-0.6324,-0.6324,-0.6324,0,0,-0.6485,-0.6469,-0.6469,-0.6455,-0.6444,-0.6442,-0.6415,-0.6414,-0.6413,-0.6381,-0.6383,-0.6371,-0.6356,-0.6363,-0.6365,-0.6354,-0.6383,-0.637,-0.6373,-0.6373,-0.6377,-0.6382,-0.6387,-0.6326,-0.6325,-0.6325,0,0,-0.6519,-0.6507,-0.6513,-0.6503,-0.6487,-0.6471,-0.6472,-0.6451,-0.6442,-0.6443,-0.642,-0.6418,-0.641,-0.64,-0.6395,-0.6426,-0.6408,-0.6425,-0.6449,-0.6455,-0.6459,-0.6463,-0.6474,-0.6478,-0.6427,-0.6427,-0.6427,0,-0.6545,-0.6542,-0.6518,-0.6519,-0.6514,-0.6485,-0.6491,-0.6482,-0.6465,-0.6462,-0.645,-0.644,-0.6428,-0.6432,-0.644,-0.6436,-0.6437,-0.6427,-0.646,-0.6464,-0.6467,-0.6477,-0.6482,-0.6429,-0.6429,-0.6429,-0.6428,0,-0.6575,-0.6573,-0.6579,-0.6564,-0.6559,-0.6562,-0.654,-0.6538,-0.6522,-0.6508,-0.651,-0.6494,-0.6485,-0.6485,-0.647,-0.6487,-0.6481,-0.6465,-0.6444,-0.6475,-0.6484,-0.6488,-0.6432,-0.6431,-0.6431,-0.643,0,0,-0.6632,-0.6604,-0.6606,-0.6599,-0.6579,-0.6577,-0.658,-0.6571,-0.6569,-0.6559,-0.656,-0.6555,-0.654,-0.6533,-0.6517,-0.6522,-0.6548,-0.6505,-0.6504,-0.6514,-0.6566,-0.6578,-0.6583,-0.6536,-0.6537,-0.6537,-0.6567,0,-0.6663,-0.6665,-0.6644,-0.6652,-0.665,-0.6623,-0.6625,-0.6614,-0.6601,-0.6597,-0.6583,-0.6579,-0.656,-0.6556,-0.6559,-0.6544,-0.6558,-0.6541,-0.6537,-0.6537,-0.6541,-0.6588,-0.66,-0.6629,-0.6571,-0.6571,-0.6572,0,-0.6699,-0.669,-0.6698,-0.6678,-0.6677,-0.6679,-0.6669,-0.6666,-0.6652,-0.6642,-0.6635,-0.6617,-0.6618,-0.6598,-0.66,-0.6589,-0.6586,-0.6579,-0.6579,-0.6578,-0.6556,-0.6587,-0.6638,-0.6642,-0.6577,-0.6577,-0.6576,0,-0.674,-0.673,-0.6734,-0.6728,-0.6705,-0.6708,-0.6698,-0.6684,-0.6679,-0.6671,-0.6668,-0.666,-0.6655,-0.6649,-0.6629,-0.6617,-0.6633,-0.6612,-0.6625,-0.6626,-0.6629,-0.6629,-0.668,-0.6628,-0.6628,-0.6628,-0.6628,0,-0.6776,-0.6782,-0.6752,-0.6754,-0.676,-0.6736,-0.6742,-0.673,-0.6718,-0.6717,-0.6694,-0.6694,-0.6667,-0.6665,-0.6649,-0.6653,-0.6651,-0.6643,-0.6639,-0.6645,-0.6646,-0.6643,-0.664,-0.6629,-0.6629,-0.6629,-0.6628,0,-0.6823,-0.6803,-0.6805,-0.6783,-0.6778,-0.6783,-0.6765,-0.6766,-0.6751,-0.6751,-0.675,-0.6727,-0.6722,-0.6702,-0.6693,-0.6682,-0.6691,-0.6683,-0.6696,-0.6693,-0.6707,-0.6706,-0.6757,-0.6763,-0.6708,-0.6708,-0.6709,0,-0.6848,-0.6851,-0.683,-0.6828,-0.682,-0.6816,-0.6812,-0.6789,-0.6785,-0.677,-0.6774,-0.6767,-0.6761,-0.6755,-0.6738,-0.6731,-0.6722,-0.674,-0.6721,-0.6727,-0.6722,-0.6722,-0.6723,-0.6745,-0.6745,-0.6746,-0.6746,0,-0.6893,-0.6883,-0.6878,-0.6869,-0.6864,-0.6856,-0.6847,-0.6847,-0.6821,-0.6818,-0.6813,-0.6808,-0.6799,-0.6793,-0.6783,-0.6774,-0.6756,-0.6753,-0.6756,-0.6762,-0.6769,-0.6765,-0.6707,-0.6752,-0.6751,-0.6751,-0.675,-0.675,-0.6929,-0.6931,-0.6917,-0.6912,-0.6902,-0.6894,-0.6894,-0.688,-0.6875,-0.6865,-0.6852,-0.6849,-0.6836,-0.6821,-0.6813,-0.681,-0.68,-0.6804,-0.6805,-0.6806,-0.6809,-0.677,-0.6808,-0.6808,-0.6808,-0.6808,-0.6808,0,-0.6974,-0.6963,-0.6958,-0.6946,-0.6942,-0.6925,-0.6914,-0.6912,-0.691,-0.6899,-0.6893,-0.6888,-0.6882,-0.6864,-0.6857,-0.6858,-0.685,-0.6857,-0.6857,-0.6855,-0.6819,-0.6817,-0.6864,-0.6864,-0.6864,-0.6864,-0.6864,-0.6864,-0.6996,-0.6999,-0.6987,-0.6985,-0.6975,-0.6971,-0.6966,-0.6959,-0.695,-0.6945,-0.694,-0.6928,-0.6915,-0.6906,-0.69,-0.6895,-0.6894,-0.6904,-0.6896,-0.6863,-0.6857,-0.6852,-0.685,-0.6903,-0.6904,-0.6932,-0.6932,-0.6933]},{"header":{"parameterUnit":"m.s-1","parameterCategory":1,"la1":30.2991,"la2":30.254,"lo1":-89.0895,"lo2":-89.0444,"dy":0.0017,"dx":0.0017,"nx":28,"ny":28,"refTime":"2024-02-01T09:00:00:Z","depth":0,"parameterNumber":3,"parameterNumberName":"V-component_of_WINDS"},"data":[0,0,0,0,0,0,0,0,0,0,0,0,0,0,0,0,0,0,0,0,0,0,0,0,0,0,0,0,0,0,0,0,0,0,0,0,0,0,0,0,0,0,0,0,0,0,0,0,0,0,0,0,0,0,0,0,0,0,1.0413,1.0413,0,1.0409,1.0409,1.0409,1.0406,1.0406,1.0406,1.0406,1.0401,1.0401,1.0401,0,0,0,0,0,0,0,0,0,0,0,0,0,1.0417,1.0417,1.0413,1.0413,1.0413,1.0409,1.0409,1.0409,1.0406,1.0406,1.0406,1.0406,1.0401,1.0401,1.0401,0,0,0,0,0,0,0,0,0,0,0,0,0,1.0415,1.0417,1.0413,1.0411,1.0411,1.0409,1.0409,1.0409,1.0406,1.0406,1.0406,1.0406,1.0401,1.0401,1.0401,1.0401,0,0,1.0401,1.0401,0,0,0,0,0,0,0,0,1.0415,1.0415,1.0411,1.0411,1.0411,1.0408,1.0409,1.0407,1.0406,1.0408,1.0406,1.0406,1.0403,1.0403,1.0403,1.0401,1.0401,1.0401,1.04,1.04,1.04,0,0,0,0,0,0,0,1.0415,1.0415,1.0412,1.0411,1.0411,1.041,1.041,1.0409,1.0406,1.0408,1.0407,1.0407,1.0403,1.0403,1.0402,1.0401,1.0401,1.04,1.04,1.04,1.0399,1.0399,0,0,0,0,0,0,1.0416,1.0415,1.0412,1.0412,1.0413,1.041,1.041,1.0409,1.0406,1.0405,1.0407,1.0407,1.0403,1.0403,1.0402,1.0402,1.04,1.04,1.04,1.0399,1.0399,1.0399,0,0,0,0,0,0,1.0416,1.0415,1.0412,1.0413,1.0413,1.041,1.0409,1.0409,1.0408,1.0406,1.0405,1.0407,1.0403,1.0402,1.0402,1.0402,1.04,1.04,1.0399,1.0399,1.0399,1.0403,0,0,0,0,0,0,1.0416,1.0415,1.0416,1.0413,1.0413,1.0412,1.041,1.0409,1.0408,1.0408,1.0405,1.0405,1.0403,1.0402,1.0401,1.0402,1.04,1.0399,1.0399,1.0399,1.0402,1.0403,1.0403,0,0,0,0,0,1.0416,1.0417,1.0416,1.0416,1.0413,1.0412,1.0411,1.0409,1.0408,1.0408,1.0407,1.0405,1.0402,1.0402,1.0401,1.0402,1.0399,1.0399,1.0399,1.0402,1.0403,1.0403,0,0,0,0,0,0,1.042,1.0417,1.0415,1.0415,1.0414,1.0411,1.0411,1.041,1.0409,1.0408,1.0405,1.0405,1.0404,1.0403,1.0403,1.0402,1.04,1.04,1.0403,1.0403,1.0403,1.0404,1.04,0,0,0,0,0,1.042,1.042,1.0417,1.0417,1.0417,1.0414,1.0414,1.0412,1.041,1.041,1.0408,1.0406,1.0404,1.0404,1.0402,1.0402,1.0401,1.0402,1.0403,1.0403,1.0403,1.0402,1.0402,1.04,1.04,1.04,0,0,1.0422,1.042,1.042,1.0418,1.0417,1.0416,1.0414,1.0413,1.0412,1.0409,1.0409,1.0407,1.0405,1.0404,1.0404,1.0403,1.0403,1.0403,1.0403,1.0403,1.0402,1.0403,1.0403,1.04,1.04,1.04,0,0,1.0425,1.0423,1.0423,1.0422,1.042,1.0418,1.0418,1.0416,1.0415,1.0414,1.0411,1.041,1.0408,1.0407,1.0405,1.0407,1.0405,1.0407,1.0408,1.0408,1.0408,1.0408,1.0408,1.0408,1.0407,1.0407,1.0407,0,1.0427,1.0426,1.0424,1.0423,1.0422,1.0419,1.0419,1.0418,1.0415,1.0415,1.0414,1.0411,1.0409,1.0408,1.0408,1.0408,1.0407,1.0407,1.0408,1.0408,1.0408,1.0409,1.0409,1.0407,1.0407,1.0407,1.0407,0,1.0429,1.0428,1.0428,1.0426,1.0425,1.0425,1.0422,1.0421,1.042,1.0418,1.0417,1.0414,1.0412,1.0412,1.041,1.041,1.041,1.0409,1.0407,1.0409,1.0409,1.0409,1.0407,1.0407,1.0407,1.0407,0,0,1.0434,1.043,1.043,1.0429,1.0426,1.0425,1.0425,1.0423,1.0422,1.042,1.042,1.0418,1.0416,1.0415,1.0413,1.0413,1.0414,1.0411,1.0411,1.0412,1.0413,1.0414,1.0414,1.0412,1.0412,1.0412,1.0413,0,1.0436,1.0435,1.0432,1.0432,1.0431,1.0428,1.0427,1.0425,1.0424,1.0422,1.042,1.0419,1.0417,1.0416,1.0416,1.0414,1.0414,1.0413,1.0411,1.0411,1.0412,1.0414,1.0415,1.0416,1.0413,1.0413,1.0413,0,1.0438,1.0437,1.0436,1.0433,1.0433,1.0432,1.043,1.0429,1.0426,1.0425,1.0424,1.0421,1.042,1.0419,1.0417,1.0417,1.0415,1.0414,1.0414,1.0414,1.0412,1.0414,1.0417,1.0417,1.0413,1.0413,1.0413,0,1.0442,1.0439,1.0439,1.0438,1.0434,1.0434,1.0432,1.043,1.0429,1.0427,1.0426,1.0424,1.0423,1.0421,1.0418,1.0417,1.0416,1.0415,1.0415,1.0415,1.0415,1.0415,1.0417,1.0414,1.0414,1.0414,1.0414,0,1.0444,1.0444,1.044,1.044,1.0439,1.0436,1.0436,1.0434,1.0432,1.043,1.0428,1.0427,1.0423,1.0422,1.0419,1.0418,1.0417,1.0416,1.0415,1.0416,1.0416,1.0416,1.0415,1.0414,1.0414,1.0414,1.0414,0,1.0448,1.0446,1.0444,1.0441,1.044,1.044,1.0437,1.0436,1.0434,1.0433,1.0432,1.0429,1.0427,1.0424,1.0421,1.042,1.0418,1.0417,1.0419,1.0419,1.0419,1.0419,1.0421,1.0421,1.0418,1.0418,1.0418,0,1.045,1.0449,1.0446,1.0445,1.0444,1.0443,1.0441,1.0438,1.0437,1.0434,1.0434,1.0432,1.043,1.0426,1.0424,1.0421,1.042,1.0421,1.042,1.042,1.042,1.042,1.042,1.0421,1.0421,1.0421,1.0421,0,1.0453,1.0452,1.045,1.0448,1.0447,1.0445,1.0443,1.0443,1.0439,1.0438,1.0436,1.0434,1.0431,1.0429,1.0426,1.0424,1.0422,1.0422,1.0422,1.0422,1.0423,1.0423,1.042,1.0422,1.0422,1.0422,1.0422,1.0422,1.0456,1.0455,1.0453,1.0451,1.0449,1.0448,1.0447,1.0444,1.0443,1.044,1.0438,1.0436,1.0433,1.0429,1.0428,1.0426,1.0425,1.0425,1.0425,1.0425,1.0425,1.0424,1.0425,1.0425,1.0425,1.0425,1.0425,0,1.0459,1.0457,1.0456,1.0453,1.0452,1.045,1.0447,1.0446,1.0445,1.0442,1.044,1.0438,1.0435,1.0432,1.043,1.0429,1.0427,1.0428,1.0428,1.0428,1.0426,1.0426,1.0429,1.0429,1.0429,1.0429,1.0429,1.0429,1.046,1.0459,1.0458,1.0456,1.0454,1.0452,1.0451,1.0449,1.0447,1.0444,1.0442,1.044,1.0437,1.0434,1.0432,1.0431,1.043,1.0431,1.043,1.0428,1.0428,1.0427,1.0428,1.0431,1.0431,1.0431,1.0431,1.0431]}]]